Regional Weather Roundup
Issued by NWS

Home | Current Version | Previous Version | Graphics & Text | Print | Product List | Glossary On
Versions: 1 2 3 4 5 6 7 8 9 10 11 12 13 14 15 16 17 18 19 20 21 22 23 24 25 26 27 28 29 30 31 32 33 34 35 36 37 38 39 40 41 42 43 44 45 46 47 48 49 50
000
ASUS43 KFSD 210102
RWRSD

WEATHER ROUNDUP FOR SOUTH DAKOTA
NATIONAL WEATHER SERVICE SIOUX FALLS SD
800 PM CDT SUN APR 20 2014

NOTE: "FAIR" INDICATES FEW OR NO CLOUDS BELOW 12,000 FEET WITH NO
SIGNIFICANT WEATHER AND/OR OBSTRUCTIONS TO VISIBILITY.


SDZ001>005-009-010-012>017-210200-
NORTHWEST AND NORTH CENTRAL SOUTH DAKOTA

CITY           SKY/WX    TMP DP  RH WIND       PRES   REMARKS
FAITH            N/A     64  28  25 N20G25    29.98R
MOBRIDGE       MOCLDY    68  35  29 N12       29.88R
$$

SDZ012>016-024>037-041>051-057-063-072>074-210200-
SOUTHWEST AND SOUTH CENTRAL SOUTH DAKOTA

CITY           SKY/WX    TMP DP  RH WIND       PRES   REMARKS
RAPID CTY ARPT PTCLDY    62  27  26 N20G31    30.02R
PIERRE         MOCLDY    73  40  30 NW14      29.84R
CUSTER         PTCLDY    59  30  33 NE8       30.06R
ELLSWORTH AFB  CLEAR     64  29  27 N17       30.02R
PHILIP         MOCLDY    68  35  29 N21G31    29.93R
PINE RIDGE     MOCLDY    65  34  31 N20G29    29.97R
WINNER         FAIR      75  44  33 S8        29.83S
$$

SDZ004>011-016>023-039-040-210200-
NORTHEAST SOUTH DAKOTA

CITY           SKY/WX    TMP DP  RH WIND       PRES   REMARKS
ABERDEEN       PTCLDY    67  31  26 CALM      29.86F
WATERTOWN      PTCLDY    68  37  32 E9        29.89F
SISSETON         N/A     63  37  38 SE9       29.89S
$$

SDZ017-020-022-023-036>040-048>070-210200-
SOUTHEAST SOUTH DAKOTA

CITY           SKY/WX    TMP DP  RH WIND       PRES   REMARKS
SIOUX FALLS    MOCLDY    73  49  42 E3        29.85F
HURON          PTCLDY    75  40  28 E5        29.83F
CHAMBERLAIN      N/A     73  44  35 E8        29.83S
MITCHELL       CLEAR     75  44  33 SE6       29.84S
YANKTON        PTCLDY    77  52  41 S3        29.85S
$$

ABBREVIATIONS USED IN REMARKS
   TC - TEMPERATURE IN CELSIUS
  WCI - WIND CHILL INDEX
   HX - HEAT INDEX
  VSB - VISIBILITY




USA.gov is the U.S. government's official web portal to all federal, state and local government web resources and services.